KD2SIG Weather Reports


time (UTC)temp
F
wind
direction
speed
knots
gust
knots
rain 1hr
in
rain 24hr
in
rain mn
in
humidity
%
barometer
mb
20260507000159 46 289 1.7 1.7 0.00 0.39 0.39 88 1011.1
20260506235656 46 268 1.7 1.7 0.00 0.39 0.39 88 1010.8
20260506235151 46 284 2.6 2.6 0.00 0.39 0.39 87 1010.6
20260506234648 46 271 1.7 1.7 0.00 0.39 0.39 87 1010.6
20260506234145 47 265 0.9 0.9 0.00 0.39 0.39 86 1010.3
20260506233643 47 271 0.0 0.0 0.00 0.39 0.39 86 1010.1
20260506233139 47 265 2.6 2.6 0.00 0.39 0.39 85 1010.4
20260506232636 47 264 0.9 1.7 0.00 0.39 0.39 85 1010.5
20260506232131 47 264 0.9 0.9 0.00 0.39 0.39 85 1010.5
20260506231629 47 258 1.7 1.7 0.00 0.39 0.39 85 1010.6
20260506231127 47 273 1.7 1.7 0.00 0.39 0.39 85 1010.5
20260506230624 47 277 0.9 0.9 0.00 0.39 0.39 85 1010.4
20260506230121 47 274 2.6 4.3 0.00 0.39 0.39 85 1010.6
20260506225617 47 280 0.9 0.9 0.00 0.39 0.39 85 1010.8
20260506225113 47 266 2.6 2.6 0.00 0.39 0.39 85 1010.7
20260506224610 47 267 0.9 1.7 0.00 0.39 0.39 85 1011.0
20260506224107 48 270 0.9 0.9 0.00 0.39 0.39 85 1010.3
20260506223603 48 272 0.9 0.9 0.00 0.39 0.39 85 1010.5
20260506223059 48 252 0.9 0.9 0.00 0.39 0.39 84 1010.6
20260506222556 48 261 2.6 2.6 0.00 0.39 0.39 84 1010.5
20260506222052 48 277 1.7 1.7 0.00 0.39 0.39 84 1010.5
20260506221550 48 258 0.9 1.7 0.00 0.39 0.39 84 1010.6
20260506221048 48 278 2.6 2.6 0.00 0.39 0.39 84 1010.3
20260506220544 48 268 0.0 0.0 0.00 0.39 0.39 84 1010.4
20260506220039 48 281 1.7 1.7 0.00 0.39 0.39 84 1010.3
20260506215537 48 264 1.7 2.6 0.00 0.39 0.39 84 1010.3
20260506215032 48 268 0.9 1.7 0.00 0.39 0.39 85 1010.3
20260506214529 48 269 0.9 1.7 0.00 0.39 0.39 85 1010.5
20260506214027 48 269 1.7 1.7 0.00 0.39 0.39 85 1010.4
20260506213525 48 285 2.6 2.6 0.00 0.39 0.39 85 1010.3
20260506213021 48 286 0.9 1.7 0.00 0.39 0.39 85 1010.2
20260506212518 48 299 0.9 1.7 0.00 0.39 0.39 85 1010.2
20260506212013 48 265 0.9 0.9 0.00 0.39 0.39 86 1010.0
20260506211509 48 248 2.6 2.6 0.00 0.39 0.39 86 1010.0
20260506211007 48 275 0.9 1.7 0.00 0.39 0.39 86 1010.0
20260506210503 48 298 1.7 1.7 0.00 0.39 0.39 86 1009.9
20260506210000 48 281 0.9 0.9 0.00 0.39 0.39 86 1010.0
20260506205456 48 315 0.9 1.7 0.00 0.39 0.39 87 1009.9
20260506204952 48 284 1.7 1.7 0.00 0.39 0.39 87 1010.0
20260506204450 48 304 0.9 0.9 0.00 0.39 0.39 87 1010.0
20260506203947 48 279 0.0 0.0 0.00 0.39 0.39 88 1010.0
20260506203444 48 279 0.9 0.9 0.00 0.39 0.39 88 1010.1
20260506202941 48 300 0.9 1.7 0.00 0.39 0.39 87 1009.9
20260506202438 48 289 0.9 0.9 0.00 0.39 0.39 87 1009.9
20260506201934 48 283 0.9 0.9 0.00 0.39 0.39 87 1010.0
20260506201432 48 324 1.7 1.7 0.00 0.39 0.39 87 1009.6
20260506200929 47 274 0.0 0.0 0.00 0.39 0.39 88 1009.9
20260506200425 48 307 1.7 1.7 0.00 0.39 0.39 89 1009.9
20260506195922 47 286 1.7 1.7 0.00 0.39 0.39 89 1009.8
20260506195419 47 292 0.9 0.9 0.00 0.39 0.39 89 1009.8
20260506194915 47 330 2.6 2.6 0.00 0.39 0.39 90 1009.8
20260506194412 47 277 0.9 0.9 0.00 0.39 0.39 90 1010.0
20260506193909 47 335 2.6 2.6 0.00 0.39 0.39 90 1009.7
20260506193406 47 349 1.7 1.7 0.00 0.39 0.39 91 1009.8
20260506192903 47 57 0.9 1.7 0.00 0.39 0.39 91 1009.9
20260506192400 47 303 0.9 0.9 0.00 0.39 0.39 92 1010.0
20260506191857 46 45 1.7 1.7 0.00 0.39 0.39 92 1009.9
20260506191353 46 358 1.7 1.7 0.00 0.39 0.39 92 1010.1
20260506190850 46 356 2.6 2.6 0.00 0.39 0.39 93 1010.3
20260506190346 46 291 1.7 2.6 0.00 0.39 0.39 93 1010.2
20260506185843 46 348 1.7 1.7 0.00 0.39 0.39 93 1010.2
20260506185340 46 320 1.7 1.7 0.00 0.39 0.39 93 1010.0
20260506184837 46 292 0.9 0.9 0.00 0.39 0.39 94 1010.3
20260506184334 46 355 2.6 2.6 0.00 0.39 0.39 94 1010.2
20260506183832 46 294 0.0 0.9 0.00 0.39 0.39 94 1010.0
20260506183327 46 5 1.7 1.7 0.00 0.39 0.39 94 1010.1
20260506182824 46 310 1.7 1.7 0.00 0.39 0.39 94 1010.2
20260506182321 46 294 0.0 0.0 0.00 0.39 0.39 95 1009.9
20260506181819 46 351 1.7 1.7 0.00 0.39 0.39 95 1010.0
20260506181317 46 24 1.7 1.7 0.00 0.39 0.39 95 1009.8
20260506180814 46 15 0.9 1.7 0.00 0.39 0.39 95 1009.8
20260506180309 45 346 1.7 1.7 0.00 0.39 0.39 96 1009.8
20260506175806 45 135 1.7 1.7 0.00 0.39 0.39 96 1009.7
20260506175306 45 49 2.6 4.3 0.00 0.39 0.39 96 1009.8
20260506174800 45 340 2.6 2.6 0.00 0.39 0.39 96 1009.4
20260506174257 45 15 1.7 1.7 0.00 0.39 0.39 96 1009.5
20260506173755 45 26 4.3 6.1 0.00 0.39 0.39 96 1009.6
20260506173252 45 331 2.6 2.6 0.00 0.39 0.39 96 1009.6
20260506172748 45 293 0.0 0.0 0.00 0.39 0.39 96 1009.7
20260506172245 45 55 2.6 2.6 0.00 0.39 0.39 97 1009.6
20260506171743 45 17 1.7 2.6 0.00 0.39 0.39 97 1009.6
20260506171240 45 6 3.5 4.3 0.00 0.39 0.39 97 1009.6
20260506170738 45 85 2.6 4.3 0.00 0.39 0.39 97 1009.5
20260506170233 45 318 1.7 1.7 0.00 0.39 0.39 97 1009.4
20260506165732 45 299 0.9 0.9 0.00 0.39 0.39 97 1009.9
20260506165229 44 15 2.6 2.6 0.00 0.39 0.39 97 1009.9
20260506164726 45 346 0.0 0.9 0.00 0.39 0.39 97 1009.7
20260506164223 44 82 2.6 2.6 0.00 0.39 0.39 97 1009.9
20260506163720 44 279 0.9 0.9 0.00 0.39 0.39 97 1009.6
20260506163215 45 315 1.7 2.6 0.00 0.39 0.39 97 1009.7
20260506162711 45 319 0.9 1.7 0.07 0.39 0.39 97 1009.8
20260506162208 45 338 1.7 2.6 0.07 0.39 0.39 97 1009.9
20260506161706 44 272 0.0 0.9 0.00 0.38 0.38 97 1009.9
20260506161203 45 89 1.7 2.6 0.00 0.38 0.38 97 1010.0
20260506160700 44 259 0.0 0.0 0.00 0.38 0.38 97 1010.1
20260506160157 44 310 0.9 1.7 0.00 0.38 0.38 97 1010.0
20260506155655 44 288 0.9 0.9 0.00 0.38 0.38 97 1010.1
20260506155152 44 319 0.9 0.9 0.00 0.38 0.38 97 1010.1
20260506153254 44 340 2.6 2.6 0.00 0.38 0.38 97 1010.1
20260506152750 44 282 0.9 0.9 0.00 0.38 0.38 97 1010.2
20260506152248 44 356 0.9 1.7 0.00 0.38 0.38 97 1009.8
20260506151747 44 13 2.6 2.6 0.05 0.38 0.38 97 1009.6
20260506151243 44 297 0.9 1.7 0.05 0.38 0.38 97 1010.0
20260506150740 44 100 1.7 2.6 0.00 0.37 0.37 97 1009.8
20260506150237 44 308 0.9 0.9 0.00 0.37 0.37 97 1009.8
20260506145734 44 330 2.6 2.6 0.00 0.37 0.37 97 1009.7
20260506145230 44 25 1.7 1.7 0.00 0.37 0.37 97 1009.7
20260506144728 44 54 0.9 0.9 0.00 0.37 0.37 97 1009.9
20260506144225 44 36 3.5 4.3 0.00 0.37 0.37 98 1009.6
20260506143722 43 272 0.9 0.9 0.00 0.37 0.37 98 1009.9
20260506143220 43 350 2.6 2.6 0.00 0.37 0.37 98 1009.8
20260506142718 43 300 0.0 0.0 0.07 0.37 0.37 98 1009.9
20260506142216 43 13 0.9 1.7 0.07 0.37 0.37 98 1009.8
20260506141713 43 43 2.6 2.6 0.00 0.36 0.36 98 1009.9
20260506141212 43 30 0.9 1.7 0.00 0.36 0.36 98 1009.8
20260506140709 43 295 0.9 1.7 0.05 0.36 0.36 97 1010.1
20260506140206 43 39 2.6 2.6 0.05 0.36 0.36 98 1010.0
20260506135703 43 304 1.7 1.7 0.00 0.35 0.35 98 1009.9
20260506135159 42 263 0.9 1.7 0.07 0.35 0.35 98 1009.9
20260506134655 42 349 0.9 1.7 0.00 0.34 0.34 97 1009.9
20260506134152 43 318 0.9 1.7 0.05 0.34 0.34 98 1010.1
20260506133649 43 97 0.9 0.9 0.05 0.34 0.34 97 1009.9
20260506133146 43 110 2.6 2.6 0.00 0.33 0.33 98 1009.8
20260506132643 43 249 0.0 0.9 0.07 0.33 0.33 98 1010.0
20260506132139 43 114 0.9 0.9 0.00 0.32 0.32 98 1009.7
20260506131637 42 248 0.0 0.0 0.00 0.32 0.32 98 1009.7
20260506131133 42 302 0.9 1.7 0.00 0.32 0.32 98 1009.7
20260506130630 42 32 1.7 1.7 0.00 0.32 0.32 98 1009.9
20260506130128 43 250 0.0 0.9 0.05 0.32 0.32 98 1009.9
20260506125626 43 319 1.7 1.7 0.05 0.32 0.32 98 1009.9
20260506125123 43 269 0.9 0.9 0.00 0.31 0.31 98 1010.3
20260506124621 43 193 0.9 0.9 0.00 0.31 0.31 98 1009.8
20260506124119 43 170 0.9 0.9 0.00 0.31 0.31 98 1009.8
20260506123616 43 273 0.0 0.0 0.07 0.31 0.31 98 1009.9
20260506123115 43 349 1.7 1.7 0.07 0.31 0.31 98 1009.7
20260506122611 43 275 0.0 0.0 0.00 0.30 0.30 98 1009.8
20260506122109 43 104 0.9 1.7 0.00 0.30 0.30 98 1010.0
20260506121606 43 240 0.0 0.9 0.07 0.30 0.30 98 1009.7
20260506121102 43 278 0.9 0.9 0.00 0.29 0.29 98 1009.9
20260506120601 43 304 0.9 0.9 0.00 0.29 0.29 98 1010.1
20260506120057 43 270 0.0 0.0 0.00 0.29 0.29 98 1010.0
20260506115556 43 269 0.0 0.0 0.05 0.29 0.29 98 1010.0
20260506115054 43 271 0.0 0.0 0.05 0.29 0.29 98 1010.0
20260506114551 43 249 0.0 0.0 0.00 0.28 0.28 98 1009.8
20260506114049 43 277 0.0 0.0 0.07 0.28 0.28 98 1010.1
20260506113546 43 275 0.0 0.0 0.00 0.27 0.27 98 1010.1
20260506113044 43 276 0.0 0.0 0.05 0.27 0.27 98 1010.3
20260506112540 43 291 0.0 0.9 0.05 0.27 0.27 98 1010.3
20260506112038 43 264 0.0 0.0 0.07 0.26 0.26 97 1010.5
20260506111535 43 272 0.0 0.0 0.07 0.26 0.26 98 1010.4
20260506111032 43 268 0.0 0.0 0.00 0.25 0.25 98 1010.4
20260506110530 43 282 0.0 0.0 0.00 0.25 0.25 97 1010.4
20260506110027 43 279 0.0 0.0 0.05 0.25 0.25 97 1010.3
20260506105523 43 296 0.0 0.9 0.00 0.24 0.24 97 1010.3
20260506105020 43 264 0.0 0.0 0.00 0.24 0.24 97 1010.3
20260506104519 43 270 0.0 0.0 0.00 0.24 0.24 97 1010.2
20260506104016 43 271 0.0 0.0 0.07 0.24 0.24 97 1010.0
20260506103513 43 286 0.0 0.0 0.07 0.24 0.24 97 1010.3
20260506103010 43 295 0.0 0.9 0.00 0.23 0.23 97 1010.3
20260506102508 43 276 0.0 0.0 0.05 0.23 0.23 97 1010.5
20260506102005 43 286 0.0 0.0 0.12 0.23 0.23 97 1010.4
20260506101501 43 270 0.0 0.0 0.12 0.22 0.22 97 1010.5
20260506100959 43 269 0.0 0.0 0.12 0.21 0.21 97 1010.3
20260506100457 43 268 0.0 0.0 0.07 0.20 0.20 97 1010.4
20260506095954 43 267 0.0 0.0 0.05 0.19 0.19 97 1010.2
20260506095453 43 273 0.0 0.0 0.07 0.18 0.18 97 1010.2
20260506094949 43 270 0.0 0.0 0.07 0.17 0.17 97 1010.5
20260506094447 43 273 0.0 0.0 0.05 0.16 0.16 97 1010.4
20260506093944 43 234 0.9 0.9 0.07 0.15 0.15 97 1010.1
20260506093443 43 268 0.0 0.0 0.12 0.15 0.15 97 1010.2
20260506092940 43 262 0.0 0.0 0.12 0.14 0.14 97 1010.0
20260506092438 44 258 0.0 0.0 0.12 0.13 0.13 97 1010.1
20260506091934 44 263 0.0 0.0 0.05 0.12 0.12 97 1010.2
20260506091432 44 264 0.0 0.0 0.07 0.11 0.11 97 1010.3
20260506090930 44 265 0.0 0.0 0.00 0.10 0.10 97 1010.2
20260506090427 44 270 0.0 0.0 0.05 0.10 0.10 97 1010.2
20260506085924 44 262 0.0 0.0 0.05 0.10 0.10 97 1010.1
20260506085420 44 284 0.0 0.0 0.00 0.09 0.09 97 1010.2
20260506084916 44 269 0.0 0.0 0.00 0.09 0.09 97 1010.4
20260506084413 44 280 0.0 0.0 0.07 0.09 0.09 97 1010.4
20260506083910 44 272 0.0 0.0 0.07 0.09 0.09 97 1010.3
20260506083407 44 262 0.0 0.0 0.00 0.08 0.08 97 1010.6
20260506082905 44 262 0.0 0.0 0.00 0.08 0.08 97 1010.3
20260506082401 44 260 0.0 0.0 0.00 0.08 0.08 97 1010.1
20260506081857 44 268 0.0 0.0 0.00 0.08 0.08 97 1010.5
20260506081355 44 262 0.0 0.0 0.00 0.08 0.08 97 1010.5
20260506080853 44 256 0.0 0.0 0.00 0.08 0.08 97 1010.5
20260506080349 44 274 0.0 0.0 0.00 0.08 0.08 97 1010.6
20260506073333 44 264 0.0 0.0 0.00 0.08 0.08 97 1010.6
20260506072830 44 264 0.0 0.0 0.05 0.08 0.08 97 1010.7
20260506072328 44 262 0.0 0.0 0.05 0.08 0.08 97 1010.4
20260506071826 44 294 0.0 0.0 0.00 0.07 0.07 97 1010.7
20260506071323 44 274 0.0 0.0 0.00 0.07 0.07 97 1010.7
20260506070820 44 258 0.9 0.9 0.00 0.07 0.07 97 1010.7
20260506070317 44 295 0.0 0.0 0.07 0.07 0.07 97 1010.6
20260506062254 44 263 0.0 0.0 0.00 0.05 0.05 96 1010.7
20260506061750 44 263 0.0 0.0 0.00 0.05 0.05 97 1010.6
20260506061247 44 252 0.0 0.0 0.00 0.05 0.05 96 1010.5
20260506060745 44 267 0.0 0.0 0.00 0.05 0.05 96 1010.3
20260506060243 44 272 0.0 0.0 0.00 0.05 0.05 96 1010.3
20260506051215 44 249 0.0 0.0 0.00 0.03 0.03 96 1011.1
20260506050713 45 260 0.0 0.0 0.05 0.03 0.03 96 1011.2
20260506050209 45 256 0.0 0.0 0.05 0.03 0.03 96 1011.2
20260506044701 45 260 0.0 0.0 0.07 0.02 0.02 96 1011.5
20260506044157 45 260 0.0 0.0 0.00 0.01 0.01 96 1011.4
20260506043655 45 256 0.0 0.0 0.00 0.01 0.01 96 1011.4
20260506043153 45 263 0.0 0.0 0.00 0.01 0.01 96 1011.7
20260506042652 45 262 0.0 0.0 0.00 0.01 0.01 96 1011.4
20260506042149 45 256 0.0 0.0 0.05 0.01 0.01 96 1011.4
20260506041647 45 254 0.0 0.0 0.05 0.01 0.01 96 1011.2
20260506041143 45 253 0.0 0.0 0.00 0.00 0.00 96 1011.3
20260506040642 45 253 0.0 0.0 0.00 0.00 0.00 96 1011.4
20260506040138 45 270 0.0 0.0 0.07 0.00 0.00 96 1011.3
20260506035635 45 231 0.9 1.7 0.07 0.65 0.65 96 1011.3
20260506035131 45 254 0.9 0.9 0.00 0.64 0.64 96 1011.0
20260506034629 45 264 0.0 0.0 0.05 0.64 0.64 96 1011.4
20260506034126 45 255 0.0 0.0 0.05 0.64 0.64 96 1011.2
20260506033623 45 247 0.9 0.9 0.07 0.63 0.63 96 1011.3
20260506033120 45 252 0.0 0.9 0.07 0.63 0.63 96 1011.5
20260506032617 45 257 0.0 0.9 0.00 0.62 0.62 96 1011.5
20260506032114 45 246 0.9 0.9 0.05 0.62 0.62 96 1011.4
20260506031611 45 237 0.9 1.7 0.05 0.62 0.62 96 1011.4
20260506031108 45 260 0.0 0.0 0.00 0.61 0.61 96 1011.4
20260506030607 45 254 0.0 0.0 0.07 0.61 0.61 95 1011.3
20260506030103 45 259 0.0 0.0 0.00 0.60 0.60 95 1011.1
20260506025600 45 244 0.9 1.7 0.05 0.60 0.60 95 1011.2
20260506025056 46 273 0.9 0.9 0.07 0.59 0.59 95 1011.2
20260506024554 46 260 0.9 0.9 0.14 0.59 0.59 95 1011.3
20260506024050 46 269 0.0 0.0 0.07 0.58 0.58 95 1011.3
20260506023546 46 263 0.0 0.0 0.05 0.57 0.57 95 1011.1
20260506023044 46 263 0.0 0.0 0.12 0.57 0.57 95 1011.0
20260506022541 46 263 0.0 0.0 0.07 0.56 0.56 95 1010.9
20260506022038 46 268 0.0 0.0 0.05 0.55 0.55 95 1011.0
20260506021536 46 259 0.0 0.0 0.05 0.55 0.55 95 1011.0
20260506021033 46 272 0.0 0.9 0.07 0.54 0.54 95 1011.0
20260506020530 46 173 0.9 1.7 0.12 0.54 0.54 95 1011.0
20260506020028 46 270 0.0 0.9 0.12 0.53 0.53 95 1011.1
20260506015525 46 271 1.7 1.7 0.12 0.52 0.52 95 1011.0
20260506015022 47 225 1.7 1.7 0.12 0.51 0.51 95 1010.8
20260506014519 47 253 0.9 0.9 0.12 0.49 0.49 95 1010.5
20260506014015 47 263 0.9 0.9 0.07 0.48 0.48 95 1010.7
20260506013513 47 286 0.0 0.9 0.12 0.47 0.47 94 1010.4
20260506013010 47 252 0.9 0.9 0.14 0.46 0.46 94 1010.5
20260506012506 47 234 0.9 0.9 0.12 0.45 0.45 94 1010.3
20260506012003 47 238 1.7 1.7 0.12 0.44 0.44 94 1010.0
20260506011500 47 254 0.9 1.7 0.12 0.43 0.43 94 1010.4
20260506010956 47 250 0.9 0.9 0.12 0.42 0.42 94 1010.3
20260506010456 48 218 1.7 1.7 0.12 0.41 0.41 94 1010.2
20260506005951 48 244 1.7 1.7 0.12 0.40 0.40 93 1010.4
20260506005449 48 261 0.0 0.0 0.07 0.39 0.39 93 1010.3
20260506004944 48 293 0.9 0.9 0.05 0.38 0.38 93 1010.2
20260506004443 48 267 0.0 0.0 0.12 0.37 0.37 93 1010.1
20260506003938 48 264 0.0 0.0 0.12 0.36 0.36 93 1010.3
20260506003435 48 254 0.9 0.9 0.12 0.35 0.35 92 1010.5
20260506002931 48 264 0.0 0.0 0.12 0.34 0.34 92 1010.2
20260506002427 48 260 0.0 0.0 0.14 0.33 0.33 92 1010.4
20260506001923 48 267 0.9 1.7 0.12 0.32 0.32 92 1010.1
20260506001420 48 277 0.9 0.9 0.12 0.31 0.31 91 1010.1
20260506000918 48 289 1.7 1.7 0.12 0.30 0.30 91 1009.9